CW8164 Weather Reports


Display with metric or nautical units.
time (UTC)temp
F
wind
direction
speed
MPH
gust
MPH
rain 1hr
in
rain 24hr
in
rain mn
in
humidity
%
barometer
mb
20180420233906 65 197 0.0 3.0 0.00 0.01 0.01 42 1021.3
20180420231906 65 195 3.0 7.0 0.00 0.01 0.01 39 1021.3
20180420230406 66 214 2.0 8.0 0.00 0.01 0.01 38 1021.4
20180420225906 66 200 2.0 8.0 0.00 0.01 0.01 38 1021.4
20180420225406 67 192 3.0 8.0 0.00 0.01 0.01 39 1021.5
20180420224905 67 350 2.0 5.0 0.00 0.01 0.01 39 1021.5
20180420223906 66 334 0.0 6.0 0.00 0.01 0.01 44 1021.6
20180420222906 65 28 1.0 3.0 0.00 0.01 0.01 43 1021.8
20180420221905 64 19 1.0 3.0 0.00 0.01 0.01 42 1021.8
20180420221405 64 340 2.0 5.0 0.00 0.01 0.01 42 1021.8
20180420220906 64 29 3.0 5.0 0.00 0.01 0.01 43 1021.9
20180420220405 64 327 1.0 3.0 0.00 0.01 0.01 44 1022.0
20180420215906 64 325 1.0 3.0 0.00 0.01 0.01 41 1022.0
20180420214906 64 23 2.0 3.0 0.00 0.01 0.01 42 1022.1
20180420213906 63 265 1.0 5.0 0.00 0.01 0.01 45 1022.3
20180420213406 63 308 3.0 5.0 0.00 0.01 0.01 43 1022.3
20180420212905 62 273 2.0 5.0 0.00 0.01 0.01 44 1022.4
20180420210905 63 300 1.0 3.0 0.00 0.01 0.01 45 1022.2
20180420205906 63 311 1.0 8.0 0.00 0.01 0.01 44 1022.4
20180420205405 63 186 2.0 6.0 0.00 0.01 0.01 40 1022.5
20180420204906 64 285 2.0 5.0 0.00 0.01 0.01 41 1022.6
20180420204406 64 287 1.0 3.0 0.00 0.01 0.01 44 1022.6
20180420203905 64 297 1.0 3.0 0.00 0.01 0.01 49 1022.7
20180420202906 63 181 2.0 8.0 0.00 0.01 0.01 42 1022.8
20180420202405 64 246 2.0 6.0 0.00 0.01 0.01 42 1022.7
20180420201406 64 210 1.0 5.0 0.00 0.01 0.01 42 1022.7
20180420200406 63 255 1.0 7.0 0.00 0.01 0.01 44 1022.8
20180420195905 63 189 3.0 7.0 0.00 0.01 0.01 44 1022.8
20180420195405 63 284 1.0 5.0 0.00 0.01 0.01 49 1022.9
20180420193406 62 294 1.0 3.0 0.00 0.01 0.01 50 1023.1
20180420192406 62 271 1.0 8.0 0.00 0.01 0.01 54 1023.3
20180420191906 62 292 2.0 8.0 0.00 0.01 0.01 45 1023.3
20180420190905 61 305 2.0 6.0 0.00 0.01 0.01 52 1023.3
20180420190405 61 279 3.0 6.0 0.00 0.01 0.01 50 1023.3
20180420184405 61 64 1.0 5.0 0.00 0.01 0.01 51 1023.6
20180420183405 60 207 2.0 5.0 0.00 0.01 0.01 49 1023.5
20180420182906 59 46 2.0 5.0 0.00 0.01 0.01 53 1023.7
20180420181905 59 61 2.0 3.0 0.00 0.01 0.01 56 1023.8
20180420181406 58 200 1.0 6.0 0.00 0.01 0.01 55 1023.9
20180420180906 58 212 2.0 6.0 0.00 0.01 0.01 53 1023.9
20180420174905 57 211 2.0 3.0 0.00 0.01 0.01 55 1023.9
20180420173405 56 278 2.0 7.0 0.00 0.01 0.01 57 1024.3
20180420171405 55 262 2.0 7.0 0.00 0.01 0.01 60 1024.3
20180420170405 54 252 1.0 5.0 0.00 0.01 0.01 62 1024.3
20180420165405 53 212 0.0 3.0 0.00 0.01 0.01 66 1024.4
20180420164905 52 216 1.0 3.0 0.00 0.01 0.01 74 1024.4
20180420164406 51 291 1.0 3.0 0.00 0.01 0.01 71 1024.5
20180420163905 51 232 2.0 3.0 0.00 0.01 0.01 67 1024.6
20180420162405 52 244 3.0 3.0 0.00 0.01 0.01 67 1024.6
20180420161906 52 211 0.0 5.0 0.00 0.01 0.01 66 1024.6
20180420160905 51 196 2.0 5.0 0.00 0.01 0.01 68 1024.7
20180420155905 50 236 1.0 5.0 0.00 0.01 0.01 69 1024.7
20180420155405 50 223 3.0 5.0 0.00 0.01 0.01 67 1024.7
20180420153905 50 204 1.0 3.0 0.00 0.01 0.01 71 1024.7
20180420153406 49 204 1.0 3.0 0.00 0.01 0.01 73 1024.7
20180420152905 49 204 1.0 3.0 0.00 0.01 0.01 73 1024.8
20180420151905 48 20 0.0 0.0 0.00 0.01 0.01 78 1024.9
20180420150906 46 20 0.0 1.0 0.00 0.01 0.01 85 1024.9
20180420145405 43 20 1.0 2.0 0.00 0.01 0.01 90 1024.8
20180420144906 42 20 1.0 2.0 0.00 0.01 0.01 91 1024.7
20180420144405 41 20 2.0 2.0 0.00 0.01 0.01 92 1024.7
20180420143406 40 20 0.0 1.0 0.00 0.01 0.01 94 1024.9
20180420142905 39 20 0.0 2.0 0.00 0.01 0.01 94 1024.8
20180420142405 39 20 1.0 2.0 0.00 0.01 0.01 95 1024.6
20180420140905 37 20 0.0 1.0 0.00 0.01 0.01 96 1024.4
20180420140405 36 20 0.0 2.0 0.01 0.01 0.01 96 1024.4
20180420135905 36 20 1.0 2.0 0.01 0.01 0.01 96 1024.3
20180420134906 35 20 0.0 2.0 0.01 0.01 0.01 96 1024.3
20180420133905 34 20 1.0 2.0 0.01 0.01 0.01 95 1024.1
20180420132405 34 20 0.0 0.0 0.01 0.01 0.01 95 1024.1
20180420130905 34 20 0.0 0.0 0.01 0.01 0.01 95 1024.3
20180420130405 35 20 0.0 0.0 0.00 0.00 0.00 95 1024.2
20180420124905 35 20 0.0 0.0 0.00 0.00 0.00 95 1024.3
20180420124405 35 20 0.0 0.0 0.00 0.00 0.00 95 1024.3
20180420123905 35 20 0.0 0.0 0.00 0.00 0.00 95 1024.3
20180420122905 35 20 0.0 0.0 0.00 0.00 0.00 94 1024.3
20180420122405 35 20 0.0 0.0 0.00 0.00 0.00 94 1024.4
20180420121905 35 20 0.0 0.0 0.00 0.00 0.00 94 1024.6
20180420120405 36 20 0.0 1.0 0.00 0.00 0.00 95 1024.7
20180420115404 36 20 0.0 0.0 0.00 0.00 0.00 95 1024.5
20180420114904 36 20 0.0 1.0 0.00 0.00 0.00 95 1024.5
20180420114405 36 20 0.0 1.0 0.00 0.00 0.00 95 1024.3
20180420113905 36 20 0.0 1.0 0.00 0.00 0.00 95 1024.4
20180420111405 36 20 0.0 2.0 0.00 0.00 0.00 93 1024.4
20180420110905 36 20 0.0 2.0 0.00 0.00 0.00 94 1024.4
20180420110405 36 20 1.0 2.0 0.00 0.00 0.00 93 1024.4
20180420105904 36 20 0.0 2.0 0.00 0.00 0.00 94 1024.3
20180420103905 37 20 1.0 2.0 0.00 0.00 0.00 94 1024.3
20180420102404 37 20 1.0 2.0 0.00 0.00 0.00 93 1024.3
20180420101904 37 20 1.0 2.0 0.00 0.00 0.00 93 1024.4
20180420101404 37 20 1.0 2.0 0.00 0.00 0.00 92 1024.5
20180420100405 37 20 1.0 2.0 0.00 0.00 0.00 93 1024.7
20180420094405 37 20 0.0 0.0 0.00 0.00 0.00 92 1024.7
20180420093405 37 20 0.0 0.0 0.00 0.00 0.00 92 1024.7
20180420092905 38 20 0.0 0.0 0.00 0.00 0.00 91 1024.7
20180420091404 38 20 0.0 0.0 0.00 0.00 0.00 91 1024.8
20180420090405 39 20 0.0 0.0 0.00 0.00 0.00 91 1024.8
20180420084905 39 20 0.0 0.0 0.00 0.00 0.00 92 1024.8
20180420084404 39 20 0.0 0.0 0.00 0.00 0.00 90 1024.7
20180420083404 39 20 0.0 0.0 0.00 0.00 0.00 90 1024.7
20180420082905 39 20 0.0 0.0 0.00 0.00 0.00 90 1024.6
20180420082405 39 20 0.0 0.0 0.00 0.00 0.00 90 1024.6
20180420081905 39 20 0.0 0.0 0.00 0.00 0.00 90 1024.6
20180420080904 40 20 0.0 1.0 0.00 0.00 0.00 90 1024.6
20180420080404 40 20 0.0 1.0 0.00 0.00 0.00 90 1024.5
20180420074904 39 20 0.0 3.0 0.00 0.00 0.00 88 1024.5
20180420074404 40 20 0.0 3.0 0.00 0.00 0.00 87 1024.3
20180420073905 40 20 1.0 2.0 0.00 0.00 0.00 87 1024.3
20180420073404 40 20 0.0 2.0 0.00 0.00 0.00 87 1024.3
20180420071905 41 289 0.0 2.0 0.00 0.00 0.00 85 1024.1
20180420071405 41 289 1.0 2.0 0.00 0.00 0.00 86 1024.2
20180420070904 41 288 0.0 2.0 0.00 0.00 0.00 84 1024.2
20180420065405 42 288 0.0 0.0 0.00 0.00 0.00 84 1024.0
20180420064904 42 288 0.0 0.0 0.00 0.00 0.00 84 1024.0
20180420064405 42 288 0.0 0.0 0.00 0.00 0.00 83 1023.9
20180420063905 42 288 0.0 0.0 0.00 0.00 0.00 83 1023.9
20180420063405 42 288 0.0 1.0 0.00 0.00 0.00 82 1023.9
20180420062905 43 288 0.0 1.0 0.00 0.00 0.00 81 1023.9
20180420062405 43 288 0.0 2.0 0.00 0.00 0.00 80 1023.9
20180420061905 43 288 1.0 2.0 0.00 0.00 0.00 79 1023.9
20180420060405 44 288 0.0 2.0 0.00 0.00 0.00 80 1023.8
20180420055904 44 288 0.0 2.0 0.00 0.00 0.00 78 1023.9
20180420053405 44 288 0.0 0.0 0.00 0.00 0.00 74 1023.9
20180420052905 45 288 0.0 0.0 0.00 0.00 0.00 75 1023.8
20180420052404 45 288 0.0 0.0 0.00 0.00 0.00 74 1023.8
20180420051904 45 288 0.0 0.0 0.00 0.00 0.00 74 1023.8
20180420050905 45 288 0.0 0.0 0.00 0.00 0.00 72 1023.8
20180420050404 45 288 0.0 0.0 0.00 0.00 0.00 73 1023.8
20180420045404 46 288 0.0 0.0 0.00 0.00 0.00 72 1023.7
20180420044404 46 288 0.0 0.0 0.00 0.00 0.00 72 1023.6
20180420043904 47 288 0.0 0.0 0.00 0.00 0.00 73 1023.5
20180420043404 47 288 0.0 0.0 0.00 0.00 0.00 72 1023.5
20180420042904 48 288 0.0 0.0 0.00 0.00 0.00 68 1023.5
20180420040904 49 288 0.0 0.0 0.00 0.00 0.00 61 1023.0
20180420040404 50 288 0.0 0.0 0.00 0.00 0.00 59 1022.9
20180420033905 52 288 1.0 2.0 0.00 0.00 0.00 48 1022.6
20180420033405 53 288 1.0 2.0 0.00 0.00 0.00 51 1022.6
20180420032405 54 288 0.0 1.0 0.00 0.00 0.00 49 1022.6
20180420031905 54 288 1.0 2.0 0.00 0.00 0.00 47 1022.6
20180420030404 56 289 1.0 2.0 0.00 0.00 0.00 42 1022.5
20180420024905 59 289 1.0 2.0 0.00 0.00 0.00 37 1022.4
20180420024405 59 289 1.0 2.0 0.00 0.00 0.00 37 1022.3
20180420023904 60 289 0.0 3.0 0.00 0.00 0.00 36 1022.3
20180420022904 61 265 2.0 3.0 0.00 0.00 0.00 31 1022.3
20180420022404 61 330 1.0 5.0 0.00 0.00 0.00 30 1022.3
20180420021405 62 318 2.0 5.0 0.00 0.00 0.00 31 1022.3
20180420020405 62 317 1.0 3.0 0.00 0.00 0.00 33 1022.3
20180420015905 63 267 1.0 3.0 0.00 0.00 0.00 32 1022.3
20180420015404 63 295 1.0 3.0 0.00 0.00 0.00 32 1022.4
20180420013904 64 302 1.0 3.0 0.00 0.00 0.00 33 1022.3
20180420012405 65 340 1.0 8.0 0.00 0.00 0.00 31 1022.3
20180420010404 66 345 3.0 8.0 0.00 0.00 0.00 29 1022.3
20180420005404 67 200 1.0 6.0 0.00 0.00 0.00 30 1022.3
20180420004904 66 218 2.0 7.0 0.00 0.00 0.00 31 1022.4
20180420002904 66 303 2.0 7.0 0.00 0.00 0.00 33 1022.3
20180420001904 66 302 1.0 8.0 0.00 0.00 0.00 31 1022.3
20180420001405 66 302 1.0 9.0 0.00 0.00 0.00 30 1022.3
20180420000904 66 354 2.0 9.0 0.00 0.00 0.00 34 1022.3
20180420000405 67 317 3.0 5.0 0.00 0.00 0.00 30 1022.3
20180419235904 67 220 3.0 5.0 0.00 0.00 0.00 28 1022.3